Data No.,UTC Date,UTC Time,Latitude,Longitude,Course(deg),Sal(psu)
9793,2012/6/2,19:28:00,00-00.0700N,144-52.2700E,349,34.5679
9794,2012/6/2,19:29:00,00-00.2800N,144-52.2300E,350,34.5727
9795,2012/6/2,19:30:00,00-00.4900N,144-52.2000E,350,34.5747
9796,2012/6/2,19:31:00,00-00.6900N,144-52.1700E,350,34.5761
9797,2012/6/2,19:32:00,00-00.9000N,144-52.1300E,350,34.5829
9798,2012/6/2,19:33:00,00-01.1100N,144-52.1000E,349,34.5865
9799,2012/6/2,19:34:00,00-01.3200N,144-52.0600E,349,34.5923
9800,2012/6/2,19:35:00,00-01.5300N,144-52.0200E,349,34.5966
9801,2012/6/2,19:36:00,00-01.7300N,144-51.9800E,349,34.5991
9802,2012/6/2,19:37:00,00-01.9400N,144-51.9400E,349,34.6034
9803,2012/6/2,19:38:00,00-02.1500N,144-51.9000E,349,34.6053
9804,2012/6/2,19:39:00,00-02.3600N,144-51.8700E,349,34.6087
9805,2012/6/2,19:40:00,00-02.5600N,144-51.8300E,350,34.612
9806,2012/6/2,19:41:00,00-02.7700N,144-51.7900E,350,34.6159
9807,2012/6/2,19:42:00,00-02.9900N,144-51.7600E,350,34.6171
9808,2012/6/2,19:43:00,00-03.2100N,144-51.7200E,351,34.6163
9809,2012/6/2,19:44:00,00-03.4200N,144-51.6900E,350,34.6175
9810,2012/6/2,19:45:00,00-03.6200N,144-51.6500E,350,34.6173
9811,2012/6/2,19:46:00,00-03.8300N,144-51.6200E,349,34.6191
9812,2012/6/2,19:47:00,00-04.0400N,144-51.5800E,348,34.6209
9813,2012/6/2,19:48:00,00-04.2400N,144-51.5300E,345,34.6228
9814,2012/6/2,19:49:00,00-04.4500N,144-51.4700E,344,34.6232
9815,2012/6/2,19:50:00,00-04.6400N,144-51.4100E,343,34.6246
9816,2012/6/2,19:51:00,00-04.8400N,144-51.3500E,343,34.6255
9817,2012/6/2,19:52:00,00-05.0500N,144-51.2900E,344,34.6259
9818,2012/6/2,19:53:00,00-05.2500N,144-51.2300E,343,34.6269
9819,2012/6/2,19:54:00,00-05.4500N,144-51.1700E,342,34.6279
9820,2012/6/2,19:55:00,00-05.6500N,144-51.1100E,342,34.6294
9821,2012/6/2,19:56:00,00-05.8500N,144-51.0500E,342,34.6297
9822,2012/6/2,19:57:00,00-06.0500N,144-50.9900E,342,34.6317
9823,2012/6/2,19:58:00,00-06.2500N,144-50.9300E,343,34.6321
9824,2012/6/2,19:59:00,00-06.4500N,144-50.8700E,343,34.6336
9825,2012/6/2,20:00:00,00-06.6600N,144-50.8100E,343,34.6351
9826,2012/6/2,20:01:00,00-06.8600N,144-50.7500E,343,34.6351
9827,2012/6/2,20:02:00,00-07.0600N,144-50.6900E,344,34.6358
9828,2012/6/2,20:03:00,00-07.2600N,144-50.6300E,343,34.6369
9829,2012/6/2,20:04:00,00-07.4600N,144-50.5700E,343,34.6372
9830,2012/6/2,20:05:00,00-07.6800N,144-50.5100E,342,34.6355
9831,2012/6/2,20:06:00,00-07.8900N,144-50.4400E,342,34.636
9832,2012/6/2,20:07:00,00-08.0900N,144-50.3800E,344,34.637
9833,2012/6/2,20:08:00,00-08.2900N,144-50.3300E,343,34.6381
9834,2012/6/2,20:09:00,00-08.4900N,144-50.2600E,342,34.6383
9835,2012/6/2,20:10:00,00-08.6900N,144-50.1900E,340,34.6378
9836,2012/6/2,20:11:00,00-08.8900N,144-50.1200E,339,34.6386
9837,2012/6/2,20:12:00,00-09.0900N,144-50.0500E,340,34.6388
9838,2012/6/2,20:13:00,00-09.2900N,144-49.9900E,340,34.6396
9839,2012/6/2,20:14:00,00-09.4900N,144-49.9200E,340,34.6396
9840,2012/6/2,20:15:00,00-09.6800N,144-49.8500E,341,34.6404
9841,2012/6/2,20:16:00,00-09.8800N,144-49.7800E,340,34.6406
9842,2012/6/2,20:17:00,00-10.0800N,144-49.7100E,340,34.6402
9843,2012/6/2,20:18:00,00-10.2800N,144-49.6400E,339,34.6403
9844,2012/6/2,20:19:00,00-10.4800N,144-49.5700E,339,34.6399
9845,2012/6/2,20:20:00,00-10.6800N,144-49.5000E,339,34.6415
9846,2012/6/2,20:21:00,00-10.8700N,144-49.4300E,340,34.6428
9847,2012/6/2,20:22:00,00-11.0700N,144-49.3600E,341,34.6453
9848,2012/6/2,20:23:00,00-11.2700N,144-49.2900E,340,34.6469
9849,2012/6/2,20:24:00,00-11.4700N,144-49.2200E,340,34.6488
9850,2012/6/2,20:25:00,00-11.6600N,144-49.1500E,340,34.6525
9851,2012/6/2,20:26:00,00-11.8600N,144-49.0800E,340,34.6542
9852,2012/6/2,20:27:00,00-12.0700N,144-49.0100E,340,34.6549
9853,2012/6/2,20:28:00,00-12.2700N,144-48.9400E,340,34.654
9854,2012/6/2,20:29:00,00-12.4700N,144-48.8700E,340,34.654
9855,2012/6/2,20:30:00,00-12.6700N,144-48.8000E,340,34.6548
9856,2012/6/2,20:31:00,00-12.8700N,144-48.7300E,340,34.6539
9857,2012/6/2,20:32:00,00-13.0600N,144-48.6600E,340,34.6537
9858,2012/6/2,20:33:00,00-13.2600N,144-48.5900E,340,34.6545
9859,2012/6/2,20:34:00,00-13.4600N,144-48.5200E,340,34.6553
9860,2012/6/2,20:35:00,00-13.6500N,144-48.4600E,340,34.6562
9861,2012/6/2,20:36:00,00-13.8500N,144-48.3800E,340,34.6578
9862,2012/6/2,20:37:00,00-14.0500N,144-48.3100E,339,34.6599
9863,2012/6/2,20:38:00,00-14.2400N,144-48.2400E,340,34.6618
9864,2012/6/2,20:39:00,00-14.4300N,144-48.1700E,339,34.6635
9865,2012/6/2,20:40:00,00-14.6300N,144-48.1000E,339,34.6663
9866,2012/6/2,20:41:00,00-14.8300N,144-48.0300E,339,34.6696
9867,2012/6/2,20:42:00,00-15.0200N,144-47.9600E,340,34.6738
9868,2012/6/2,20:43:00,00-15.2200N,144-47.9000E,341,34.6758
9869,2012/6/2,20:44:00,00-15.4100N,144-47.8300E,341,34.6777
9870,2012/6/2,20:45:00,00-15.6100N,144-47.7600E,340,34.6793
9871,2012/6/2,20:46:00,00-15.8000N,144-47.6900E,339,34.681
9872,2012/6/2,20:47:00,00-15.9900N,144-47.6200E,339,34.6829
9873,2012/6/2,20:48:00,00-16.1900N,144-47.5500E,339,34.6856
9874,2012/6/2,20:49:00,00-16.3900N,144-47.4800E,340,34.6886
9875,2012/6/2,20:50:00,00-16.5900N,144-47.4100E,340,34.6912
9876,2012/6/2,20:51:00,00-16.7800N,144-47.3400E,340,34.6928
9877,2012/6/2,20:52:00,00-16.9800N,144-47.2700E,340,34.6935
9878,2012/6/2,20:53:00,00-17.1700N,144-47.2000E,339,34.6958
9879,2012/6/2,20:54:00,00-17.3600N,144-47.1300E,339,34.6968
9880,2012/6/2,20:55:00,00-17.5600N,144-47.0600E,339,34.6973
9881,2012/6/2,20:56:00,00-17.7500N,144-46.9900E,340,34.6955
9882,2012/6/2,20:57:00,00-17.9400N,144-46.9200E,339,34.6944
9883,2012/6/2,20:58:00,00-18.1400N,144-46.8500E,339,34.6907
9884,2012/6/2,20:59:00,00-18.3300N,144-46.7800E,339,34.6898
9885,2012/6/2,21:00:00,00-18.5200N,144-46.7100E,340,34.6878
9886,2012/6/2,21:01:00,00-18.7100N,144-46.6400E,340,34.6876
9887,2012/6/2,21:02:00,00-18.9100N,144-46.5700E,340,34.6863
9888,2012/6/2,21:03:00,00-19.1000N,144-46.5000E,339,34.6868
9889,2012/6/2,21:04:00,00-19.2900N,144-46.4300E,339,34.6876
9890,2012/6/2,21:05:00,00-19.4900N,144-46.3600E,339,34.6871
9891,2012/6/2,21:06:00,00-19.6800N,144-46.2900E,339,34.6862
9892,2012/6/2,21:07:00,00-19.8800N,144-46.2200E,339,34.686
9893,2012/6/2,21:08:00,00-20.0700N,144-46.1500E,340,34.6841
9894,2012/6/2,21:09:00,00-20.2700N,144-46.0800E,340,34.6847
9895,2012/6/2,21:10:00,00-20.4600N,144-46.0100E,339,34.6827
9896,2012/6/2,21:11:00,00-20.6500N,144-45.9400E,339,34.6841
9897,2012/6/2,21:12:00,00-20.8400N,144-45.8700E,339,34.6826
9898,2012/6/2,21:13:00,00-21.0500N,144-45.7900E,340,34.6843
9899,2012/6/2,21:14:00,00-21.2400N,144-45.7300E,340,34.6842
9900,2012/6/2,21:15:00,00-21.4400N,144-45.6600E,341,34.6843
9901,2012/6/2,21:16:00,00-21.6300N,144-45.5900E,341,34.6841
9902,2012/6/2,21:17:00,00-21.8300N,144-45.5300E,340,34.6847
9903,2012/6/2,21:18:00,00-22.0200N,144-45.4600E,340,34.686
9904,2012/6/2,21:19:00,00-22.2200N,144-45.3900E,340,34.6851
9905,2012/6/2,21:20:00,00-22.4100N,144-45.3200E,339,34.6865
9906,2012/6/2,21:21:00,00-22.6100N,144-45.2400E,339,34.6871
9907,2012/6/2,21:22:00,00-22.8000N,144-45.1800E,339,34.6866
9908,2012/6/2,21:23:00,00-23.0000N,144-45.1100E,340,34.6871
9909,2012/6/2,21:24:00,00-23.1900N,144-45.0400E,340,34.6867
9910,2012/6/2,21:25:00,00-23.3900N,144-44.9700E,340,34.6872
9911,2012/6/2,21:26:00,00-23.5800N,144-44.9000E,340,34.6883
9912,2012/6/2,21:27:00,00-23.7800N,144-44.8300E,339,34.6918
9913,2012/6/2,21:28:00,00-23.9700N,144-44.7600E,341,34.6941
9914,2012/6/2,21:29:00,00-24.1700N,144-44.7000E,340,34.6946
9915,2012/6/2,21:30:00,00-24.3700N,144-44.6300E,341,34.6932
9916,2012/6/2,21:31:00,00-24.5600N,144-44.5600E,341,34.6942
9917,2012/6/2,21:32:00,00-24.7600N,144-44.5000E,341,34.6929
9918,2012/6/2,21:33:00,00-24.9600N,144-44.4300E,341,34.6928
9919,2012/6/2,21:34:00,00-25.1600N,144-44.3600E,340,34.6899
9920,2012/6/2,21:35:00,00-25.3700N,144-44.2900E,340,34.6831
9921,2012/6/2,21:36:00,00-25.5700N,144-44.2200E,340,34.6793
9922,2012/6/2,21:37:00,00-25.7600N,144-44.1500E,340,34.6775
9923,2012/6/2,21:38:00,00-25.9600N,144-44.0800E,340,34.6773
9924,2012/6/2,21:39:00,00-26.1500N,144-44.0100E,341,34.6783
9925,2012/6/2,21:40:00,00-26.3500N,144-43.9400E,340,34.6794
9926,2012/6/2,21:41:00,00-26.5400N,144-43.8700E,339,34.6792
9927,2012/6/2,21:42:00,00-26.7400N,144-43.8000E,339,34.6756
9928,2012/6/2,21:43:00,00-26.9400N,144-43.7300E,341,34.672
9929,2012/6/2,21:44:00,00-27.1300N,144-43.6600E,341,34.6699
9930,2012/6/2,21:45:00,00-27.3200N,144-43.6000E,341,34.6653
9931,2012/6/2,21:46:00,00-27.5300N,144-43.5300E,342,34.6599
9932,2012/6/2,21:47:00,00-27.7200N,144-43.4700E,341,34.6606
9933,2012/6/2,21:48:00,00-27.9200N,144-43.4000E,341,34.6639
9934,2012/6/2,21:49:00,00-28.1100N,144-43.3400E,340,34.6685
9935,2012/6/2,21:50:00,00-28.3100N,144-43.2700E,339,34.6734
9936,2012/6/2,21:51:00,00-28.5000N,144-43.2000E,340,34.6768
9937,2012/6/2,21:52:00,00-28.7000N,144-43.1300E,340,34.6795
9938,2012/6/2,21:53:00,00-28.8900N,144-43.0600E,340,34.6826
9939,2012/6/2,21:54:00,00-29.0900N,144-42.9900E,341,34.6861
9940,2012/6/2,21:55:00,00-29.2900N,144-42.9300E,341,34.687
9941,2012/6/2,21:56:00,00-29.4900N,144-42.8600E,341,34.687
9942,2012/6/2,21:57:00,00-29.7000N,144-42.7900E,341,34.6869
9943,2012/6/2,21:58:00,00-29.8900N,144-42.7300E,340,34.6865
9944,2012/6/2,21:59:00,00-30.0900N,144-42.6600E,340,34.6861
9945,2012/6/2,22:00:00,00-30.2800N,144-42.5900E,340,34.6851
9946,2012/6/2,22:01:00,00-30.4800N,144-42.5200E,341,34.6852
9947,2012/6/2,22:02:00,00-30.6800N,144-42.4500E,342,34.686
9948,2012/6/2,22:03:00,00-30.8800N,144-42.3900E,342,34.6877
9949,2012/6/2,22:04:00,00-31.0800N,144-42.3200E,340,34.6872
9950,2012/6/2,22:05:00,00-31.2800N,144-42.2500E,341,34.6876
9951,2012/6/2,22:06:00,00-31.4800N,144-42.1900E,341,34.6883
9952,2012/6/2,22:07:00,00-31.6800N,144-42.1200E,340,34.6887
9953,2012/6/2,22:08:00,00-31.8800N,144-42.0500E,342,34.6898
9954,2012/6/2,22:09:00,00-32.0800N,144-41.9900E,343,34.691
9955,2012/6/2,22:10:00,00-32.2800N,144-41.9300E,343,34.6916
9956,2012/6/2,22:11:00,00-32.4900N,144-41.8700E,342,34.6904
9957,2012/6/2,22:12:00,00-32.6800N,144-41.8000E,342,34.6882
9958,2012/6/2,22:13:00,00-32.8900N,144-41.7400E,342,34.6847
9959,2012/6/2,22:14:00,00-33.0900N,144-41.6700E,342,34.6822
9960,2012/6/2,22:15:00,00-33.2900N,144-41.6100E,343,34.6803
9961,2012/6/2,22:16:00,00-33.5000N,144-41.5500E,344,34.6831
9962,2012/6/2,22:17:00,00-33.6900N,144-41.5000E,344,34.6858
9963,2012/6/2,22:18:00,00-33.9000N,144-41.4400E,344,34.6876
9964,2012/6/2,22:19:00,00-34.1200N,144-41.3800E,343,34.6879
9965,2012/6/2,22:20:00,00-34.3200N,144-41.3200E,343,34.688
9966,2012/6/2,22:21:00,00-34.5200N,144-41.2600E,343,34.6893
9967,2012/6/2,22:22:00,00-34.7200N,144-41.2000E,343,34.6907
9968,2012/6/2,22:23:00,00-34.9200N,144-41.1400E,343,34.6911
9969,2012/6/2,22:24:00,00-35.1300N,144-41.0800E,343,34.6912
9970,2012/6/2,22:25:00,00-35.3200N,144-41.0200E,343,34.6921
9971,2012/6/2,22:26:00,00-35.5300N,144-40.9600E,344,34.6934
9972,2012/6/2,22:27:00,00-35.7300N,144-40.9000E,344,34.6936
9973,2012/6/2,22:28:00,00-35.9300N,144-40.8400E,343,34.6949
9974,2012/6/2,22:29:00,00-36.1300N,144-40.7800E,342,34.6948
9975,2012/6/2,22:30:00,00-36.3300N,144-40.7100E,341,34.6936
9976,2012/6/2,22:31:00,00-36.5300N,144-40.6500E,342,34.6905
9977,2012/6/2,22:32:00,00-36.7300N,144-40.5900E,342,34.6885
9978,2012/6/2,22:33:00,00-36.9300N,144-40.5200E,342,34.6891
9979,2012/6/2,22:34:00,00-37.1300N,144-40.4600E,342,34.6891
9980,2012/6/2,22:35:00,00-37.3200N,144-40.4000E,342,34.6929
9981,2012/6/2,22:36:00,00-37.5200N,144-40.3300E,342,34.6972
9982,2012/6/2,22:37:00,00-37.7200N,144-40.2700E,342,34.6985
9983,2012/6/2,22:38:00,00-37.9200N,144-40.2100E,342,34.7021
9984,2012/6/2,22:39:00,00-38.1200N,144-40.1500E,342,34.7034
9985,2012/6/2,22:40:00,00-38.3200N,144-40.0900E,343,34.7031
9986,2012/6/2,22:41:00,00-38.5400N,144-40.0200E,343,34.7023
9987,2012/6/2,22:42:00,00-38.7400N,144-39.9700E,343,34.7027
9988,2012/6/2,22:43:00,00-38.9400N,144-39.9100E,342,34.7055
9989,2012/6/2,22:44:00,00-39.1400N,144-39.8500E,342,34.7065
9990,2012/6/2,22:45:00,00-39.3400N,144-39.7900E,343,34.7041
9991,2012/6/2,22:46:00,00-39.5400N,144-39.7300E,343,34.7045
9992,2012/6/2,22:47:00,00-39.7400N,144-39.6700E,342,34.7031
9993,2012/6/2,22:48:00,00-39.9400N,144-39.6000E,342,34.7017
9994,2012/6/2,22:49:00,00-40.1300N,144-39.5400E,342,34.6992
9995,2012/6/2,22:50:00,00-40.3400N,144-39.4800E,344,34.6956
9996,2012/6/2,22:51:00,00-40.5300N,144-39.4300E,344,34.6926
9997,2012/6/2,22:52:00,00-40.7400N,144-39.3700E,343,34.6903
9998,2012/6/2,22:53:00,00-40.9400N,144-39.3100E,344,34.6852
9999,2012/6/2,22:54:00,00-41.1400N,144-39.2600E,344,34.6782
10000,2012/6/2,22:55:00,00-41.3400N,144-39.2000E,344,34.6726
10001,2012/6/2,22:56:00,00-41.5300N,144-39.1500E,343,34.6666
10002,2012/6/2,22:57:00,00-41.7300N,144-39.0900E,342,34.6557
10003,2012/6/2,22:58:00,00-41.9300N,144-39.0200E,342,34.6495
10004,2012/6/2,22:59:00,00-42.1300N,144-38.9600E,341,34.6509
10005,2012/6/2,23:00:00,00-42.3200N,144-38.9000E,342,34.6608
10006,2012/6/2,23:01:00,00-42.5200N,144-38.8300E,342,34.6661
10007,2012/6/2,23:02:00,00-42.7100N,144-38.7700E,342,34.6659
10008,2012/6/2,23:03:00,00-42.9300N,144-38.7000E,341,34.6642
10009,2012/6/2,23:04:00,00-43.1300N,144-38.6400E,341,34.6621
10010,2012/6/2,23:05:00,00-43.3200N,144-38.5800E,342,34.6578
10011,2012/6/2,23:06:00,00-43.5200N,144-38.5200E,342,34.6545
10012,2012/6/2,23:07:00,00-43.7200N,144-38.4600E,341,34.6518
10013,2012/6/2,23:08:00,00-43.9100N,144-38.3900E,341,34.646
10014,2012/6/2,23:09:00,00-44.1100N,144-38.3300E,342,34.6407
10015,2012/6/2,23:10:00,00-44.3100N,144-38.2700E,343,34.6368
10016,2012/6/2,23:11:00,00-44.5100N,144-38.2100E,343,34.6381
10017,2012/6/2,23:12:00,00-44.7100N,144-38.1500E,342,34.6364
10018,2012/6/2,23:13:00,00-44.9100N,144-38.0900E,342,34.6347
10019,2012/6/2,23:14:00,00-45.1000N,144-38.0300E,342,34.6357
10020,2012/6/2,23:15:00,00-45.3000N,144-37.9700E,342,34.6359
10021,2012/6/2,23:16:00,00-45.5000N,144-37.9000E,341,34.6375
10022,2012/6/2,23:17:00,00-45.7000N,144-37.8400E,341,34.6388
10023,2012/6/2,23:18:00,00-45.9000N,144-37.7800E,342,34.6357
10024,2012/6/2,23:19:00,00-46.1000N,144-37.7200E,341,34.6326
10025,2012/6/2,23:20:00,00-46.2900N,144-37.6500E,341,34.6324
10026,2012/6/2,23:21:00,00-46.4900N,144-37.5900E,341,34.6321
10027,2012/6/2,23:22:00,00-46.6900N,144-37.5300E,342,34.6309
10028,2012/6/2,23:23:00,00-46.9000N,144-37.4600E,342,34.6272
10029,2012/6/2,23:24:00,00-47.1000N,144-37.4100E,343,34.6236
10030,2012/6/2,23:25:00,00-47.2900N,144-37.3500E,342,34.6186
10031,2012/6/2,23:26:00,00-47.5000N,144-37.2800E,341,34.6158
10032,2012/6/2,23:27:00,00-47.7000N,144-37.2100E,341,34.6141
10033,2012/6/2,23:28:00,00-47.9000N,144-37.1500E,341,34.6118
10034,2012/6/2,23:29:00,00-48.1000N,144-37.0900E,342,34.6119
10035,2012/6/2,23:30:00,00-48.3000N,144-37.0300E,343,34.6157
10036,2012/6/2,23:31:00,00-48.5000N,144-36.9700E,342,34.6149
10037,2012/6/2,23:32:00,00-48.7000N,144-36.9100E,342,34.6158
10038,2012/6/2,23:33:00,00-48.9000N,144-36.8500E,342,34.6176
10039,2012/6/2,23:34:00,00-49.1000N,144-36.7800E,342,34.6188
10040,2012/6/2,23:35:00,00-49.3000N,144-36.7200E,342,34.6215
10041,2012/6/2,23:36:00,00-49.5000N,144-36.6600E,342,34.6228
10042,2012/6/2,23:37:00,00-49.6900N,144-36.6000E,342,34.6208
10043,2012/6/2,23:38:00,00-49.9000N,144-36.5300E,341,34.6166
10044,2012/6/2,23:39:00,00-50.0900N,144-36.4700E,341,34.6117
10045,2012/6/2,23:40:00,00-50.3000N,144-36.4000E,341,34.6086
10046,2012/6/2,23:41:00,00-50.5000N,144-36.3400E,342,34.6033
10047,2012/6/2,23:42:00,00-50.7000N,144-36.2800E,342,34.594
10048,2012/6/2,23:43:00,00-50.9000N,144-36.2200E,343,34.5886
10049,2012/6/2,23:44:00,00-51.1100N,144-36.1500E,342,34.584
10050,2012/6/2,23:45:00,00-51.3100N,144-36.0900E,342,34.5772
10051,2012/6/2,23:46:00,00-51.5100N,144-36.0300E,341,34.5726
10052,2012/6/2,23:47:00,00-51.7200N,144-35.9600E,341,34.5702
10053,2012/6/2,23:48:00,00-51.9200N,144-35.9000E,342,34.5701
10054,2012/6/2,23:49:00,00-52.1400N,144-35.8300E,342,34.5733
10055,2012/6/2,23:50:00,00-52.3500N,144-35.7600E,343,34.5747
10056,2012/6/2,23:51:00,00-52.5500N,144-35.7000E,342,34.5776
10057,2012/6/2,23:52:00,00-52.7600N,144-35.6400E,341,34.5793
10058,2012/6/2,23:53:00,00-52.9600N,144-35.5700E,342,34.5815
10059,2012/6/2,23:54:00,00-53.1600N,144-35.5100E,341,34.5839
10060,2012/6/2,23:55:00,00-53.3700N,144-35.4400E,342,34.584
10061,2012/6/2,23:56:00,00-53.5800N,144-35.3800E,342,34.584
10062,2012/6/2,23:57:00,00-53.7800N,144-35.3100E,343,34.5864
10063,2012/6/2,23:58:00,00-53.9900N,144-35.2500E,343,34.5872
10064,2012/6/2,23:59:00,00-54.2000N,144-35.1900E,343,34.588
10065,2012/6/3,0:00:00,00-54.4100N,144-35.1300E,343,34.5887
10068,2012/6/3,0:01:00,00-54.6300N,144-35.0600E,341,34.5876
10069,2012/6/3,0:02:00,00-54.8300N,144-34.9900E,342,34.5857
10070,2012/6/3,0:03:00,00-55.0400N,144-34.9300E,342,34.579
10071,2012/6/3,0:04:00,00-55.2500N,144-34.8600E,342,34.5789
10072,2012/6/3,0:05:00,00-55.4600N,144-34.8000E,342,34.5776
10073,2012/6/3,0:06:00,00-55.6700N,144-34.7300E,342,34.5711
10074,2012/6/3,0:07:00,00-55.8800N,144-34.6700E,341,34.563
10075,2012/6/3,0:08:00,00-56.0900N,144-34.6000E,342,34.5501
10076,2012/6/3,0:09:00,00-56.3000N,144-34.5300E,342,34.5429
10077,2012/6/3,0:10:00,00-56.5100N,144-34.4700E,342,34.5404
10078,2012/6/3,0:11:00,00-56.7200N,144-34.4000E,342,34.5385
10079,2012/6/3,0:12:00,00-56.9400N,144-34.3300E,342,34.5354
10080,2012/6/3,0:13:00,00-57.1500N,144-34.2600E,342,34.5337
10081,2012/6/3,0:14:00,00-57.3600N,144-34.1900E,341,34.5312
10082,2012/6/3,0:15:00,00-57.5700N,144-34.1200E,341,34.5312
10083,2012/6/3,0:16:00,00-57.7800N,144-34.0500E,341,34.5301
10084,2012/6/3,0:17:00,00-58.0000N,144-33.9800E,341,34.5181
10085,2012/6/3,0:18:00,00-58.2100N,144-33.9200E,342,34.5006
10086,2012/6/3,0:19:00,00-58.4100N,144-33.8500E,343,34.4963
10087,2012/6/3,0:20:00,00-58.6300N,144-33.7900E,343,34.4957
10088,2012/6/3,0:21:00,00-58.8400N,144-33.7300E,343,34.4929
10089,2012/6/3,0:22:00,00-59.0500N,144-33.6600E,341,34.4927
10090,2012/6/3,0:23:00,00-59.2600N,144-33.5900E,341,34.4975
10091,2012/6/3,0:24:00,00-59.4700N,144-33.5200E,342,34.5022
10092,2012/6/3,0:25:00,00-59.6800N,144-33.4500E,341,34.5075
10093,2012/6/3,0:26:00,00-59.8900N,144-33.3900E,342,34.5087
10094,2012/6/3,0:27:00,01-00.1000N,144-33.3200E,342,34.5117
10095,2012/6/3,0:28:00,01-00.3100N,144-33.2600E,342,34.5112
10096,2012/6/3,0:29:00,01-00.5200N,144-33.1900E,342,34.509
10097,2012/6/3,0:30:00,01-00.7300N,144-33.1300E,341,34.5035
10098,2012/6/3,0:31:00,01-00.9400N,144-33.0500E,341,34.4989
10099,2012/6/3,0:32:00,01-01.1400N,144-32.9900E,342,34.4952
10100,2012/6/3,0:33:00,01-01.3500N,144-32.9200E,342,34.493
10101,2012/6/3,0:34:00,01-01.5500N,144-32.8600E,341,34.4911
10102,2012/6/3,0:35:00,01-01.7800N,144-32.7900E,341,34.4647
10103,2012/6/3,0:36:00,01-01.9800N,144-32.7200E,342,34.4401
10104,2012/6/3,0:37:00,01-02.1800N,144-32.6600E,342,34.4192
10105,2012/6/3,0:38:00,01-02.3900N,144-32.6000E,343,34.4045
10106,2012/6/3,0:39:00,01-02.5900N,144-32.5400E,344,34.3969
10107,2012/6/3,0:40:00,01-02.7900N,144-32.4800E,342,34.3954
10108,2012/6/3,0:41:00,01-02.9900N,144-32.4200E,344,34.3958
10109,2012/6/3,0:42:00,01-03.1900N,144-32.3700E,343,34.3973
10110,2012/6/3,0:43:00,01-03.3800N,144-32.3100E,343,34.4024
10111,2012/6/3,0:44:00,01-03.5800N,144-32.2500E,343,34.4095
10112,2012/6/3,0:45:00,01-03.7800N,144-32.1900E,344,34.414
10113,2012/6/3,0:46:00,01-03.9800N,144-32.1300E,342,34.418
10114,2012/6/3,0:47:00,01-04.1700N,144-32.0700E,343,34.4204
10115,2012/6/3,0:48:00,01-04.3700N,144-32.0100E,343,34.4219
10116,2012/6/3,0:49:00,01-04.5600N,144-31.9600E,343,34.4252
10117,2012/6/3,0:50:00,01-04.7600N,144-31.9000E,343,34.4252
10118,2012/6/3,0:51:00,01-04.9600N,144-31.8400E,343,34.4261
10119,2012/6/3,0:52:00,01-05.1500N,144-31.7800E,343,34.4261
10120,2012/6/3,0:53:00,01-05.3500N,144-31.7200E,343,34.4291
10121,2012/6/3,0:54:00,01-05.5400N,144-31.6700E,343,34.4315
10122,2012/6/3,0:55:00,01-05.7400N,144-31.6100E,343,34.4322
10123,2012/6/3,0:56:00,01-05.9400N,144-31.5500E,343,34.4287
10124,2012/6/3,0:57:00,01-06.1400N,144-31.4900E,343,34.4234
10125,2012/6/3,0:58:00,01-06.3400N,144-31.4300E,344,34.4166
10126,2012/6/3,0:59:00,01-06.5300N,144-31.3800E,343,34.4108
10127,2012/6/3,1:00:00,01-06.7200N,144-31.3200E,342,34.4013
10128,2012/6/3,1:01:00,01-06.9200N,144-31.2600E,342,34.395
10129,2012/6/3,1:02:00,01-07.1100N,144-31.2000E,343,34.3901
10130,2012/6/3,1:03:00,01-07.3000N,144-31.1400E,343,34.3861
10131,2012/6/3,1:04:00,01-07.5000N,144-31.0900E,343,34.3858
10132,2012/6/3,1:05:00,01-07.7000N,144-31.0200E,342,34.3862
10133,2012/6/3,1:06:00,01-07.8900N,144-30.9600E,342,34.3857
10134,2012/6/3,1:07:00,01-08.0900N,144-30.9000E,342,34.3844
10135,2012/6/3,1:08:00,01-08.2800N,144-30.8400E,343,34.3878
10136,2012/6/3,1:09:00,01-08.4800N,144-30.7800E,344,34.3916
10137,2012/6/3,1:10:00,01-08.6700N,144-30.7300E,344,34.3938
10138,2012/6/3,1:11:00,01-08.8700N,144-30.6700E,344,34.3891
10139,2012/6/3,1:12:00,01-09.0700N,144-30.6100E,342,34.3934
10140,2012/6/3,1:13:00,01-09.2700N,144-30.5500E,341,34.3887
10141,2012/6/3,1:14:00,01-09.4600N,144-30.4900E,342,34.3766
10142,2012/6/3,1:15:00,01-09.6600N,144-30.4300E,344,34.3652
10143,2012/6/3,1:16:00,01-09.8600N,144-30.3700E,344,34.3481
10144,2012/6/3,1:17:00,01-10.0600N,144-30.3200E,344,34.3348
10145,2012/6/3,1:18:00,01-10.2800N,144-30.2600E,343,34.3218
10146,2012/6/3,1:19:00,01-10.4800N,144-30.2000E,343,34.3156
10147,2012/6/3,1:20:00,01-10.6800N,144-30.1400E,343,34.3074
10148,2012/6/3,1:21:00,01-10.8700N,144-30.0800E,343,34.2967
10149,2012/6/3,1:22:00,01-11.0700N,144-30.0300E,344,34.289
10150,2012/6/3,1:23:00,01-11.2800N,144-29.9700E,344,34.2816
10151,2012/6/3,1:24:00,01-11.4800N,144-29.9100E,344,34.2711
10152,2012/6/3,1:25:00,01-11.6800N,144-29.8600E,344,34.2538
10153,2012/6/3,1:26:00,01-11.8800N,144-29.8000E,342,34.2659
10154,2012/6/3,1:27:00,01-12.0900N,144-29.7300E,341,34.2678
10155,2012/6/3,1:28:00,01-12.2900N,144-29.6700E,342,34.2423
10156,2012/6/3,1:29:00,01-12.4900N,144-29.6100E,343,34.2441
10157,2012/6/3,1:30:00,01-12.6900N,144-29.5500E,342,34.2438
10158,2012/6/3,1:31:00,01-12.8900N,144-29.4900E,344,34.2341
10159,2012/6/3,1:32:00,01-13.1000N,144-29.4300E,344,34.2346
10160,2012/6/3,1:33:00,01-13.3000N,144-29.3700E,342,34.2427
10161,2012/6/3,1:34:00,01-13.5000N,144-29.3100E,343,34.2111
10162,2012/6/3,1:35:00,01-13.7000N,144-29.2500E,342,34.1933
10163,2012/6/3,1:36:00,01-13.9100N,144-29.1900E,343,34.1927
10164,2012/6/3,1:37:00,01-14.1200N,144-29.1300E,344,34.2035
10165,2012/6/3,1:38:00,01-14.3200N,144-29.0700E,342,34.2286
10166,2012/6/3,1:39:00,01-14.5200N,144-29.0100E,342,34.2214
10167,2012/6/3,1:40:00,01-14.7400N,144-28.9400E,343,34.2132
10168,2012/6/3,1:41:00,01-14.9400N,144-28.8800E,342,34.227
10169,2012/6/3,1:42:00,01-15.1400N,144-28.8200E,341,34.2443
10170,2012/6/3,1:43:00,01-15.3500N,144-28.7500E,341,34.2306
10171,2012/6/3,1:44:00,01-15.5500N,144-28.6900E,342,34.2148
10172,2012/6/3,1:45:00,01-15.7600N,144-28.6300E,343,34.2014
10173,2012/6/3,1:46:00,01-15.9700N,144-28.5700E,344,34.1952
10174,2012/6/3,1:47:00,01-16.1700N,144-28.5100E,344,34.1918
10175,2012/6/3,1:48:00,01-16.3700N,144-28.4500E,342,34.1952
10176,2012/6/3,1:49:00,01-16.5800N,144-28.3900E,343,34.1878
10177,2012/6/3,1:50:00,01-16.7800N,144-28.3300E,343,34.1759
10178,2012/6/3,1:51:00,01-16.9900N,144-28.2600E,342,34.1789
10179,2012/6/3,1:52:00,01-17.1900N,144-28.2000E,342,34.1791
10180,2012/6/3,1:53:00,01-17.3900N,144-28.1400E,343,34.1809
10181,2012/6/3,1:54:00,01-17.6000N,144-28.0800E,343,34.1844
10182,2012/6/3,1:55:00,01-17.8100N,144-28.0200E,343,34.2032
10183,2012/6/3,1:56:00,01-18.0100N,144-27.9600E,343,34.2072
10184,2012/6/3,1:57:00,01-18.2200N,144-27.8900E,341,34.2323
10185,2012/6/3,1:58:00,01-18.4200N,144-27.8300E,341,34.2333